Location: Bédeille
(43.0872°N, 1.1041°E)
Time: 01:46:00
(UTC+00:00)

Cosmos 1763 Rocket - Pass Details

Date: 03 February 2023
Orbit: 733 x 778 km, 74.0° (Epoch: 27 March)

Event Time Altitude Azimuth Distance (km) Brightness Sun altitude
Rises 18:18:07 0° 339° (NNW) 3,221 6.9 -12.7°
Reaches altitude 10° 18:20:30 10° 340° (NNW) 2,285 6.1 -13.1°
Maximum altitude 18:25:42 90° 256° (WSW) 752 3.4 -14.1°
Drops below altitude 10° 18:30:47 10° 162° (SSE) 2,241 5.8 -15.0°
Sets 18:33:06 0° 162° (SSE) 3,155 6.6 -15.4°
